Regional Weather Roundup
Issued by NWS

Home | Current Version | Previous Version | Text Only | Print | Product List | Glossary Off
Versions: 1 2 3 4 5 6 7 8 9 10 11 12 13 14 15 16 17 18 19 20 21 22 23 24 25 26 27 28 29 30 31 32 33 34 35 36 37 38 39 40 41 42 43 44 45 46 47 48 49 50

547
ASUS45 KTFX 311410
RWRMT
MONTANA REGIONAL WEATHER ROUNDUP
NATIONAL WEATHER SERVICE GREAT FALLS MT
800 AM MDT TUE MAY 31 2016

NOTE: "FAIR" INDICATES FEW OR NO CLOUDS BELOW 12000 FEET WITH NO
SIGNIFICANT WEATHER AND/OR OBSTRUCTIONS TO VISIBILITY.

MTZ001>007-043-311500-
WEST OF THE DIVIDE

CITY           SKY/WX    TMP DP  RH WIND       PRES   REMARKS
KALISPELL      SUNNY     53  39  59 N7        30.22R
MISSOULA       SUNNY     48  37  65 CALM      30.24S
BUTTE          SUNNY     40  30  67 CALM      30.27R
MULLAN PASS    SUNNY     45  27  49 CALM      30.24S
ANACONDA         N/A     48  34  57 CALM      30.26F
DEER LODGE       N/A     46  36  66 CALM      30.28S
EUREKA           N/A     46  39  76 CALM      30.26S
HAMILTON         N/A     48  34  57 S6        30.23R
LIBBY            N/A     45  37  76 CALM      30.25S
$$

MTZ008-052>055-311500-
SOUTHWEST MONTANA

CITY           SKY/WX    TMP DP  RH WIND       PRES   REMARKS
BOZEMAN        SUNNY     46  37  71 CALM      30.27R
DILLON         SUNNY     42  35  76 CALM      30.25R
W YELLOWSTONE  CLOUDY    36  27  69 CALM      30.26R
ENNIS          MOSUNNY   43  34  70 CALM      30.31R
$$

MTZ009-010-012-014-046-048-049-054-311500-
EAST SLOPES AND CENTRAL MONTANA

CITY           SKY/WX    TMP DP  RH WIND       PRES   REMARKS
CUT BANK       SUNNY     48  39  71 NW16      30.24S
GREAT FALLS    SUNNY     47  37  68 NW14      30.25S
MALMSTROM AFB  SUNNY     46  39  75 NW9       30.26S
HELENA         CLOUDY    48  37  65 W7        30.27S
CHOTEAU          N/A     50  39  66 N18       30.27S
$$

MTZ011-013-016-021-045-047-050-051-311500-
NORTH CENTRAL MONTANA

CITY           SKY/WX    TMP DP  RH WIND       PRES   REMARKS
HAVRE          CLOUDY    48  45  89 NW13G22   30.16R
LEWISTOWN      LGT RAIN  42  39  89 W12       30.18S
N BAR RANCH    MIX PCPN  41  37  87 NW20G28   30.15R
CHINOOK          N/A     50  46  87 W12G18    30.13R
$$

MTZ017>020-022>027-061-062-311500-
NORTHEAST MONTANA

CITY           SKY/WX    TMP DP  RH WIND       PRES   REMARKS
GLASGOW        LGT RAIN  52  49  89 NW17G28   29.95R
JORDAN           N/A     50  48  93 NW23G33   29.96R
SIDNEY         CLOUDY    52  50  93 NW14      29.75F
WOLF POINT     LGT RAIN  54  50  86 N18G25    29.87R
POPLAR           N/A     52  48  87 N20       29.84R
$$

MTZ028>42-056>058-311500-
SOUTHCENTRAL AND SOUTHEAST MONTANA

CITY           SKY/WX    TMP DP  RH WIND       PRES   REMARKS
BAKER          LGT RAIN  47  45  93 W24       29.85F FOG
BILLINGS       PTSUNNY   50  33  52 NW22G28   30.14R
LIVINGSTON     PTSUNNY   50  34  54 NW12      30.24R
MILES CITY     CLOUDY    49  47  93 W28G35    29.92R
FORSYTH          N/A     48  45  87 W22G36    29.98S
$$

REGIONAL REPORTS...DAKOTAS

CITY           SKY/WX    TMP DP  RH WIND       PRES   REMARKS
WILLISTON      LGT RAIN  54  51  90 N25G32    29.71F FOG
MINOT          CLOUDY    56  49  77 SW12G23   29.61F
DICKINSON      CLOUDY    49  45  86 W18G29    29.75F
BEACH          LGT RAIN  48  48 100 W15G22    29.82F
CROSBY         RAIN      52  52 100 N25G32    29.75S
WATFORD CITY   LGT RAIN  48  48 100 SW10      29.72F
BISMARCK       PTSUNNY   53  46  77 W15G29    29.76F
GRAND FORKS    CLOUDY    62  57  83 S13       29.67F
FARGO          CLOUDY    63  57  81 SW14      29.73R
BUFFALO SD       N/A     48  42  80 W29G38    29.83F
RAPID CITY     SUNNY     59  36  42 W20       29.98S
$$

REGIONAL REPORTS...WYOMING/IDAHO/WASHINGTON

CITY           SKY/WX    TMP DP  RH WIND       PRES   REMARKS
GILLETTE       SUNNY     51  36  56 W22G30    30.05F
SHERIDAN       MOSUNNY   55  33  43 NW18G26   30.12R
BUFFALO WY     SUNNY     53  30  41 VRB3      30.10F
CODY           SUNNY     46  36  66 SE3       30.18S
YELLOWSTONE LA   N/A     39  22  50 VRB5      30.28R
IDAHO FALLS    SUNNY     46  35  65 N8        30.17R
SALMON         SUNNY     43  30  61 CALM      30.21S
BOISE          SUNNY     53  37  54 SW6       30.13R
SPOKANE        MOSUNNY   53  38  56 NE6       30.18S
$$

REGIONAL REPORTS...ALBERTA

CITY           SKY/WX    TMP DP  RH WIND       PRES   REMARKS
EDMONTON       SUNNY     48  41  76 NW5       30.22S
CALGARY        MOSUNNY   48  39  71 CALM      30.24F
LETHBRIDGE     MOSUNNY   48  41  76 W14       30.25R
MEDICINE HAT   CLOUDY    48  46  93 NW12G18   30.17R
WATERTON GATE    N/A     45  41  87 SW6         N/A
MILK RIVER       N/A     46  41  81 NW17        N/A
$$

REGIONAL REPORTS...SASKATCHEWAN

CITY           SKY/WX    TMP DP  RH WIND       PRES   REMARKS
SWIFT CURRENT  PTSUNNY   52  50  93 N16       30.05R
REGINA         CLOUDY    52  50  93 N17G24    29.92S
SASKATOON      PTSUNNY   54  50  87 N14       30.07R
CYPRESS HILLS    N/A     43  41  93 NW9         N/A
VAL MARIE        N/A     52  48  87 N21G28      N/A
ROCKGLEN         N/A     50  48  93 N21G28      N/A
ASSINIBOIA       N/A     48  48 100 NW10        N/A
$$




USA.gov is the U.S. government's official web portal to all federal, state and local government web resources and services.